Disclaimer

Please do not use the information listed here in-flight or in-navigation, as they are not provided to us by the airports but are provided by volunteers, so they might be outdated.

Search


Regions


Airport information page

No radio frequency information is available.

Airport informations:
Latitude: 62° 39' 46.46" N
Longitude: 029° 36' 27.18" E
Elevation: 398 feet - 121 meters
Operating hours: N/A
Operating agency: Civil government, landing fees and diplomatic clearance may be required
Timezone: UTC+2(+3DT) - Last Sunday in March to last Sunday in October
Fuel: Jet A1, without icing nhibitor.

100/130 MIL Spec, low lead, aviation gasoline (BLUE)

Runway information:
10/28 - 8202 x 171 feet< - >2500 x 52 meters
17/35 - 3937 x 98 feet< - >1200 x 30 meters

Recent METARs:
EFJO 171350Z AUTO 34007KT 9999 -SN FEW093 BKN112 M13/M14 Q0982
EFJO 171420Z AUTO 35005KT 9999 -SN OVC093 M12/M14 Q0982
EFJO 171450Z 35007KT 9999 -SHSN OVC093 M12/M14 Q0982

Airport on the map: